ELY5467 LLBG-LYTV

Flight info

Callsign ELY5467
Flight time N/A
Altitude 38000
Route SUVAS N128 TEZAK L324 SAFTA DCT MAROS DCT LUTIG DCT BENEM UN127 RIKSO DCT STINO DCT TALAS DCT ENFAR DCT RINAV DCT RETRA L604 POD
Aircraft B738/M-SDE2E3FGHIJ1LORVWXY/LB1

Departure

Time 2026-04-30 11:09
Airport Ben Gurion International Airport (LLBG)

Arrival

Time N/A
Airport Tivat Airport (LYTV)
Time Latitude Longitude Altitude Speed Heading
2026-04-30 10:29 32.00179 34.87336 116 ft 0 kts 56°
2026-04-30 10:56 32.00170 34.87321 114 ft 4 kts 64°
2026-04-30 10:56 32.00159 34.87294 118 ft 4 kts 37°
2026-04-30 10:56 32.00140 34.87282 119 ft 4 kts
2026-04-30 10:57 32.00116 34.87288 116 ft 3 kts 333°
2026-04-30 10:57 32.00094 34.87300 116 ft 4 kts 336°
2026-04-30 10:57 32.00069 34.87313 115 ft 4 kts 334°
2026-04-30 10:57 32.00050 34.87324 119 ft 4 kts 320°
2026-04-30 10:58 32.00035 34.87346 116 ft 2 kts 304°
2026-04-30 10:58 32.00023 34.87369 116 ft 2 kts 301°
2026-04-30 10:58 32.00014 34.87391 119 ft 4 kts 277°
2026-04-30 10:58 32.00009 34.87417 119 ft 1 kts 302°
2026-04-30 10:59 31.99996 34.87442 118 ft 4 kts 302°
2026-04-30 10:59 31.99982 34.87469 119 ft 4 kts 302°
2026-04-30 10:59 31.99968 34.87495 119 ft 4 kts 301°
2026-04-30 10:59 31.99955 34.87521 119 ft 4 kts 299°
2026-04-30 11:00 31.99948 34.87547 115 ft 4 kts 246°
2026-04-30 11:00 31.99963 34.87566 116 ft 4 kts 213°
2026-04-30 11:00 31.99985 34.87585 118 ft 4 kts 218°
2026-04-30 11:00 31.99996 34.87595 117 ft 1 kts 212°
2026-04-30 11:03 31.99990 34.87590 116 ft 4 kts 212°
2026-04-30 11:03 31.99956 34.87549 119 ft 8 kts 253°
2026-04-30 11:03 31.99984 34.87502 118 ft 8 kts 350°
2026-04-30 11:04 32.00101 34.87572 119 ft 14 kts 31°
2026-04-30 11:04 32.00199 34.87642 117 ft 18 kts 31°
2026-04-30 11:04 32.00309 34.87720 115 ft 18 kts 31°
2026-04-30 11:04 32.00420 34.87799 117 ft 21 kts 31°
2026-04-30 11:05 32.00568 34.87904 115 ft 28 kts 31°
2026-04-30 11:05 32.00741 34.88029 118 ft 29 kts 32°
2026-04-30 11:05 32.00905 34.88148 117 ft 27 kts 31°
2026-04-30 11:05 32.01064 34.88262 116 ft 28 kts 31°
2026-04-30 11:06 32.01235 34.88387 120 ft 29 kts 34°
2026-04-30 11:06 32.01376 34.88545 119 ft 27 kts 52°
2026-04-30 11:06 32.01468 34.88726 117 ft 25 kts 69°
2026-04-30 11:06 32.01508 34.88922 119 ft 24 kts 80°
2026-04-30 11:07 32.01535 34.89093 117 ft 18 kts 79°
2026-04-30 11:07 32.01599 34.89160 118 ft 13 kts 358°
2026-04-30 11:07 32.01687 34.89143 116 ft 13 kts 350°
2026-04-30 11:07 32.01747 34.89122 114 ft 6 kts 306°
2026-04-30 11:08 32.01745 34.89083 118 ft 4 kts 259°
2026-04-30 11:08 32.01720 34.88919 120 ft 49 kts 260°
2026-04-30 11:08 32.01620 34.88266 120 ft 111 kts 259°
2026-04-30 11:08 32.01455 34.87184 121 ft 159 kts 260°
2026-04-30 11:09 32.01253 34.85847 536 ft 167 kts 263°
2026-04-30 11:09 32.01030 34.84501 1174 ft 168 kts 259°
2026-04-30 11:09 32.00748 34.83141 1737 ft 174 kts 259°
2026-04-30 11:09 32.00455 34.81763 2421 ft 174 kts 257°
2026-04-30 11:10 32.00159 34.80368 2986 ft 177 kts 256°
2026-04-30 11:10 31.99869 34.78937 3514 ft 184 kts 257°
2026-04-30 11:10 31.99553 34.77364 3700 ft 208 kts 256°
2026-04-30 11:10 31.99199 34.75634 3885 ft 226 kts 263°
2026-04-30 11:11 31.99421 34.73771 4007 ft 246 kts 289°
2026-04-30 11:11 32.00061 34.71801 4199 ft 269 kts 291°
2026-04-30 11:11 32.00767 34.69668 4447 ft 289 kts 290°
2026-04-30 11:11 32.01498 34.67368 4629 ft 310 kts 290°
2026-04-30 11:12 32.02259 34.64920 4926 ft 324 kts 289°
2026-04-30 11:12 32.02828 34.62331 5419 ft 330 kts 274°
2026-04-30 11:12 32.02909 34.59623 6070 ft 332 kts 271°
2026-04-30 11:12 32.03012 34.56892 6563 ft 335 kts 272°
2026-04-30 11:13 32.03150 34.54137 7103 ft 336 kts 272°
2026-04-30 11:13 32.03297 34.51371 7697 ft 341 kts 272°
2026-04-30 11:13 32.03448 34.48562 8314 ft 344 kts 272°
2026-04-30 11:13 32.03598 34.45729 8962 ft 347 kts 272°
2026-04-30 11:14 32.03752 34.42882 9578 ft 350 kts 272°
2026-04-30 11:14 32.03917 34.40016 10361 ft 347 kts 272°
2026-04-30 11:14 32.04080 34.37189 10947 ft 353 kts 272°